sat.trackr.live / text

‹ back to catalog

STARLINK-35712

NORAD 66215 · 2025-244K

PAYLOAD ACTIVE UNKNOWN

§ Identity

Operator
Country
US
Launch date
2025-10-28
Launch site
AFWTR
Launch vehicle
Mass (kg)
RCS (m²)

Purposes: comms

External: N2YO · Heavens-Above · Gunter

§ Orbital elements

Epoch: 2026-09-20T14:15:38.569824Z

Period
93.85 min
Inclination
53.1608°
Eccentricity
0.0001336
Mean motion
15.34395077 rev/d
Perigee alt
461.8 km
Apogee alt
463.6 km
Semi-major
6,840.9 km
B*
8.3157e-4
RAAN
41.5244°
Arg perigee
93.3819°
Mean anomaly
266.7336°
Rev number
5,154

§ Raw data

STARLINK-357121 66215U 25244K   26263.59419641  .00027819  00000+0  83157-3 0  99982 66215  53.1608  41.5244 0001336  93.3819 266.7336 15.34395077 51543

JSON: /api/v1/satellites/66215 · /tle

For live sub-satellite position, see the globe view (requires WebGL).

§ Visibility from observer

Set your observer location to see the next 7 days of passes ≥ 10°. The values pass through the URL so the page stays shareable.

No JS? Fill the form by hand. The geolocation button needs JavaScript.